PulseSat

PulseSat

GSAT0214 (GALILEO 18)

Last updated on Feb. 16, 2019, 3:04 a.m. UTC

1 41862U 16069D   19046.18379782  .00000023  00000-0  00000+0 0  9992
2 41862  54.5934 175.4110 0001628 267.3795  92.5595  1.70473799 13970
UTC
Height (km)
Latitude
Longitude
Inclination
Orbital Period

Next 30 passes for location: Hong Kong

Rise time Rise Azimuth (degrees) Set time Set Azimuth (degrees) Duration Max altitude (degrees)

No matching passes for this satellites

PulseSat

PulseSat is the new satellites software and hardware trackering solution by Pulsely.
Satellite Two Line Element Set source: US Air Force Space Command

Download PulseSat for iOS
© 2017 Pulsely Limited